Regional Weather Roundup
Issued by NWS Sioux Falls, SD

Home | Current Version | Previous Version | Graphics & Text | Print | Product List | Glossary Off
Versions: 1 2 3 4 5 6 7 8 9 10 11 12 13 14 15 16 17 18 19 20 21 22 23 24 25 26 27 28 29 30 31 32 33 34 35 36 37 38 39 40 41 42 43 44 45 46 47 48 49 50

000
ASUS43 KFSD 300702
RWRFSD

WEATHER ROUNDUP FOR SE SOUTH DAKOTA/SW MINNESOTA/NW IOWA
NATIONAL WEATHER SERVICE SIOUX FALLS SD
200 AM CDT TUE JUN 30 2015

NOTE: "FAIR" INDICATES FEW OR NO CLOUDS BELOW 12,000 FEET WITH NO
SIGNIFICANT WEATHER AND OR OBSTRUCTIONS TO VISIBILITY.


SDZ038>040-050-052>070-300800-
SOUTHEAST SOUTH DAKOTA

CITY           SKY/WX    TMP DP  RH WIND       PRES   REMARKS
BROOKINGS      MOCLDY    63  57  82 NE5       29.94F
CHAMBERLAIN    PTCLDY    69  62  78 CALM      29.91F
HURON          PTCLDY    69  63  81 E5        29.91S
MADISON        FAIR      64  64 100 CALM      29.94F
MITCHELL       CLEAR     68  66  93 E6        29.91S FOG
SIOUX FALLS    MOCLDY    65  61  87 CALM      29.93R
WINNER         FAIR      75  54  47 SW7       29.94F
YANKTON        PTCLDY    70  61  73 SW3       29.91S
$$

MNZ071-072-080-081-089-090-097-098-300800-
SOUTHWEST MINNESOTA

CITY           SKY/WX    TMP DP  RH WIND       PRES   REMARKS
FAIRMONT       CLEAR     66  59  77 NW9       29.88S
JACKSON        CLEAR     64  63  94 NW7       29.91S
MARSHALL       PTCLDY    63  57  82 NW7       29.91S
MONTEVIDEO     CLEAR     64  61  88 N6        29.90F
PIPESTONE      MOCLDY    66  61  82 NE3       29.93F
REDWOOD FALLS  CLEAR     66  64  93 NW7       29.88S
TRACY          CLOUDY    66  64  93 NW6       29.91F
WINDOM         CLEAR     66  63  88 NW7       29.91S
WORTHINGTON    MOCLDY    63  57  82 N7        29.93S
$$

IAZ001>003-012>014-020>022-031-032-NEZ013-014-SDZ071-300800-
NORTHWEST IOWA

CITY           SKY/WX    TMP DP  RH WIND       PRES   REMARKS
DENISON        CLOUDY    63  61  94 CALM      29.89F
ESTHERVILLE    CLEAR     64  61  90 NW7       29.89S
SIOUX CITY     CLEAR     65  60  84 N3        29.91S
SPENCER        CLOUDY    61  59  93 NW6       29.90F FOG
$$

ABBREVIATIONS USED IN REMARKS
   TC - TEMPERATURE IN CELSIUS
  WCI - WIND CHILL INDEX
   HX - HEAT INDEX
  VSB - VISIBILITY



USA.gov is the U.S. government's official web portal to all federal, state and local government web resources and services.